Wind_Speed
41 40 40 39 39 39 39 39 39 39 41 42 42 43 44 45 45 45 46 46 46 46 45 44 43 43 42 42 41 40 39 37 36 36 36 35 33 32 32 31 31 32 32
43 43 42 42 41 41 41 41 41 42 43 43 44 45 46 47 48 49 49 49 49 49 48 48 47 47 46 46 45 44 42 41 40 39 38 37 36 35 35 34 35 35 35
44 44 44 44 43 43 43 43 43 44 44 45 46 47 48 49 50 50 50 50 51 52 52 51 51 51 50 49 48 48 46 44 43 42 41 40 38 38 38 37 38 38 38
44 45 45 45 45 44 44 44 44 44 45 46 46 47 48 49 50 51 52 53 54 55 55 55 54 54 54 52 51 50 50 48 47 45 44 44 43 42 40 40 41 41 41
43 43 44 44 44 44 44 44 44 44 45 46 47 48 49 49 50 52 53 54 55 56 57 57 57 57 56 55 54 53 52 51 50 49 48 47 46 45 44 43 44 43 43
40 40 41 41 42 42 42 42 43 43 44 45 46 47 49 50 51 52 54 55 56 57 58 59 60 60 59 58 57 56 55 54 53 52 51 50 50 48 47 46 46 46 46
35 35 36 37 38 39 39 40 41 42 44 45 47 48 50 51 53 54 56 57 58 59 60 60 61 62 62 62 61 59 58 58 57 55 54 53 52 50 49 48 48 47 47
31 32 33 34 35 36 38 39 41 42 44 46 48 51 53 54 56 58 59 61 61 62 63 63 63 63 63 63 63 62 61 60 59 58 57 55 54 53 52 51 50 49 49
28 29 30 32 33 35 37 38 40 43 45 47 50 52 55 57 59 61 63 64 65 66 66 67 66 65 65 65 64 64 63 62 61 60 59 58 56 55 53 53 52 51 51
26 27 28 30 32 34 36 38 40 42 44 47 49 52 54 56 59 62 64 66 68 69 69 69 69 68 66 66 65 64 64 63 63 62 60 59 58 56 55 54 53 54 54
24 26 28 30 31 33 35 36 38 40 42 44 46 49 52 55 59 62 64 67 68 69 69 69 69 68 67 66 65 64 64 63 63 63 62 60 59 58 57 57 56 56 57
23 25 27 28 30 31 33 34 35 37 39 41 43 47 51 54 56 58 60 62 63 64 64 64 64 63 62 62 62 62 63 62 62 61 61 60 60 59 59 59 58 58 59
22 24 25 26 28 29 30 31 32 33 35 37 42 44 46 48 50 51 52 52 53 54 55 56 56 56 56 56 56 56 57 58 59 59 59 59 60 59 60 58 58 58 59
21 23 24 25 25 26 27 28 28 29 31 35 38 39 41 42 42 41 40 40 40 42 44 46 47 49 49 50 49 50 51 52 54 55 57 57 58 58 58 58 58 59 61
19 21 22 23 23 23 24 24 24 26 29 31 32 33 34 34 34 32 30 29 29 31 33 36 39 40 41 42 43 44 44 45 46 48 50 52 53 54 55 56 57 59 61
18 20 21 21 21 21 21 21 22 24 25 27 28 28 28 28 28 26 23 21 21 22 25 27 29 30 31 33 35 37 38 39 41 43 45 47 48 50 52 54 56 58 61
17 18 19 19 19 19 19 20 20 21 22 23 24 24 24 24 23 20 18 16 15 16 18 19 20 22 23 25 26 28 30 32 35 37 39 42 45 47 50 53 56 59 60
16 16 16 17 17 17 18 18 18 18 19 20 21 21 21 21 19 17 15 12 10 8 9 10 12 14 16 17 20 22 24 27 29 32 37 39 43 46 49 51 53 54 56
15 15 15 16 16 16 16 16 15 16 17 17 18 18 18 18 16 15 13 11 8 6 4 4 6 8 11 14 16 19 22 25 29 32 35 38 41 43 46 48 50 52 55
14 15 15 15 15 15 15 14 14 14 15 15 16 16 16 16 15 14 13 11 10 8 5 3 3 6 8 11 14 17 20 23 26 29 32 35 37 40 43 45 49 52 56
14 14 14 14 14 14 13 13 13 13 13 14 14 14 15 15 14 14 13 11 10 8 6 5 4 5 7 10 13 16 18 21 24 27 30 33 36 40 43 47 51 54 58
13 13 13 13 13 13 13 12 12 12 12 13 13 14 14 14 14 14 13 12 11 9 8 7 7 7 9 11 13 15 18 22 25 28 31 35 38 42 46 49 53 56 58
14 14 14 14 13 13 13 12 12 12 12 13 13 14 14 14 14 13 13 12 11 11 10 10 10 11 12 14 16 18 21 24 27 31 34 38 41 45 48 52 54 57 57
15 15 14 14 14 13 13 13 12 12 12 13 13 14 14 14 14 13 13 13 13 13 13 13 13 14 16 17 19 22 24 27 31 34 37 40 44 47 51 53 55 56 54
16 16 16 15 14 14 14 14 14 13 13 13 14 15 15 15 14 14 14 14 15 15 15 16 17 18 19 21 23 26 29 31 34 37 40 43 47 50 52 54 54 52 49
17 17 17 16 15 15 15 15 15 15 15 15 15 16 16 16 16 16 16 17 17 18 18 19 20 22 23 25 28 30 33 35 37 40 43 46 49 51 52 51 49 45 42
Wind_Direction
246 248 249 251 253 255 257 259 262 263 265 266 267 268 268 268 268 268 267 266 265 264 264 264 264 265 266 266 266 266 267 268 269 270 270 271 273 274 275 277 280 282 285
248 250 253 255 257 259 261 263 264 265 266 266 267 268 268 269 270 270 270 269 268 267 266 265 264 263 264 264 265 265 266 266 268 269 270 272 273 274 275 277 279 281 283
249 252 255 258 261 263 265 266 267 268 268 268 268 268 269 269 270 270 270 270 268 267 265 264 263 262 263 263 264 265 265 266 267 268 270 272 272 273 275 277 279 280 282
251 254 257 260 263 266 267 268 269 270 270 270 270 269 269 269 269 268 267 266 266 266 265 264 263 262 262 262 263 263 264 265 266 267 269 270 271 273 274 276 277 279 280
253 256 260 263 265 267 268 270 271 271 271 271 271 271 270 269 268 267 266 266 265 265 264 263 262 261 260 260 260 261 262 264 265 266 268 270 272 272 273 274 275 276 278
255 258 261 263 265 267 269 271 272 273 274 274 273 273 272 271 269 268 267 265 264 263 262 261 260 260 259 258 258 258 259 261 263 265 267 269 271 272 272 274 274 276 278
256 258 260 263 265 268 271 273 274 275 276 276 276 275 275 274 272 271 269 267 265 263 262 260 259 258 258 257 257 257 257 259 261 263 265 267 269 271 272 273 275 276 278
255 258 261 265 268 271 273 275 276 277 278 278 279 278 278 277 276 274 272 269 267 264 262 260 258 257 256 256 256 256 257 257 259 261 263 265 268 270 271 273 274 276 278
256 260 264 268 271 273 275 277 278 279 280 281 281 281 280 279 278 276 274 271 269 266 263 261 258 256 255 255 255 256 257 257 259 260 262 264 266 268 270 273 274 277 278
259 263 267 270 273 275 277 279 280 281 282 283 283 283 283 282 280 279 276 273 270 267 263 261 259 257 255 254 254 255 256 257 259 260 262 264 266 268 270 272 275 277 278
260 265 270 273 276 278 280 281 282 283 284 285 286 286 286 284 283 280 278 274 270 266 263 261 259 258 256 254 253 253 254 255 257 259 261 263 265 268 270 272 274 277 278
262 267 272 275 278 280 281 282 284 286 288 289 290 291 290 289 287 285 280 275 270 266 263 261 259 258 256 255 254 253 252 253 255 258 260 262 266 267 270 272 275 276 277
264 269 274 278 281 282 284 285 288 291 292 294 297 298 297 296 295 291 283 277 270 265 262 260 258 256 255 254 254 253 252 253 254 256 259 262 265 268 270 272 274 276 277
270 274 278 282 284 284 286 288 291 294 298 303 305 304 305 304 302 299 291 281 271 265 261 258 258 256 254 253 252 252 252 252 253 255 259 262 265 267 270 272 273 275 276
278 282 282 283 285 287 288 290 294 299 305 311 314 313 314 313 312 308 300 288 275 266 262 259 257 255 253 251 250 250 250 251 253 256 259 261 264 267 270 272 274 275 277
285 288 287 285 285 287 290 292 296 303 310 318 321 322 322 321 320 315 310 301 285 270 264 259 254 251 249 248 248 248 248 250 253 256 259 263 266 269 270 273 274 276 277
290 293 292 288 287 288 292 295 298 306 312 320 325 329 330 332 332 326 317 309 295 278 266 257 250 247 245 245 246 247 249 252 256 259 262 264 266 269 272 274 275 276 279
293 297 298 296 293 292 293 297 302 308 314 320 328 334 338 341 344 343 337 328 315 296 273 255 247 244 242 241 243 245 248 252 256 260 263 266 269 271 274 278 280 283 285
294 299 301 302 300 296 297 299 303 310 317 322 329 336 343 349 352 355 358 358 355 341 315 274 247 241 241 243 244 247 252 258 261 265 267 270 273 276 280 284 287 290 292
298 301 303 305 304 302 301 302 305 313 322 328 333 340 344 352 358 2 5 7 10 10 4 348 295 267 259 257 258 261 263 267 270 273 276 279 281 284 288 291 293 294 295
299 302 304 307 308 309 310 310 311 317 324 332 336 340 346 351 358 1 6 7 7 5 3 355 332 299 286 279 275 275 275 277 280 283 286 287 289 292 294 295 297 299 300
297 301 303 304 306 309 312 314 317 322 327 334 341 345 349 355 358 1 2 2 2 359 353 343 331 319 307 298 293 290 289 290 291 292 294 295 296 297 298 300 302 303 303
294 299 302 303 303 306 309 312 315 320 326 333 338 341 343 346 349 351 353 354 353 350 344 338 330 322 315 310 306 302 300 299 299 299 299 299 300 301 303 305 305 306 305
289 295 299 301 301 301 304 306 309 313 317 323 328 330 333 335 337 338 339 339 339 337 334 329 325 321 317 313 309 307 305 304 304 304 303 304 305 306 307 308 308 308 307
285 290 295 297 297 296 298 299 301 304 308 313 318 321 323 325 328 331 332 333 332 331 329 326 324 320 317 314 311 310 309 308 308 307 307 308 309 310 311 311 310 310 309
280 286 289 293 291 291 293 294 295 296 300 305 311 315 318 321 323 326 327 328 328 328 326 324 321 319 316 314 312 311 311 310 310 310 310 312 313 313 313 312 312 311 311
Height
5776 5779 5782 5785 5787 5789 5791 5792 5793 5793 5793 5793 5793 5792 5792 5792 5791 5791 5791 5790 5790 5790 5790 5791 5791 5790 5790 5790 5789 5789 5789 5789 5789 5789 5788 5788 5788 5788 5787 5786 5785 5784 5782
5768 5771 5774 5777 5779 5781 5783 5784 5784 5784 5784 5784 5784 5784 5783 5783 5782 5782 5781 5781 5781 5781 5781 5781 5781 5781 5781 5780 5780 5780 5780 5781 5781 5780 5780 5780 5781 5780 5779 5778 5777 5776 5774
5761 5764 5766 5768 5770 5772 5773 5774 5775 5775 5775 5775 5774 5774 5773 5773 5773 5772 5771 5771 5770 5769 5770 5770 5770 5770 5770 5770 5770 5771 5771 5771 5771 5771 5771 5772 5772 5771 5771 5770 5768 5767 5766
5754 5756 5758 5760 5761 5763 5763 5764 5764 5764 5764 5764 5763 5763 5763 5763 5762 5760 5760 5758 5757 5757 5757 5758 5758 5758 5759 5759 5760 5760 5760 5760 5761 5761 5761 5762 5762 5762 5761 5760 5759 5758 5756
5746 5748 5750 5751 5752 5753 5754 5754 5753 5753 5753 5752 5752 5751 5751 5751 5750 5748 5747 5746 5745 5745 5745 5745 5745 5745 5746 5747 5748 5748 5749 5749 5750 5750 5750 5750 5751 5750 5750 5750 5749 5747 5746
5739 5740 5741 5742 5743 5743 5743 5743 5743 5742 5741 5741 5740 5739 5738 5737 5736 5735 5734 5733 5732 5732 5732 5731 5731 5732 5733 5734 5734 5735 5736 5737 5738 5739 5739 5740 5740 5740 5739 5739 5738 5737 5736
5731 5732 5733 5734 5734 5734 5734 5733 5732 5731 5730 5729 5727 5726 5724 5723 5722 5720 5719 5718 5717 5717 5717 5717 5717 5718 5719 5720 5721 5722 5724 5725 5725 5726 5727 5728 5728 5729 5728 5727 5727 5726 5725
5723 5724 5725 5725 5725 5725 5724 5723 5722 5721 5719 5717 5715 5712 5710 5708 5706 5704 5702 5701 5700 5700 5700 5700 5701 5703 5704 5705 5707 5709 5711 5712 5713 5714 5715 5716 5716 5717 5716 5716 5715 5714 5713
5715 5716 5716 5717 5716 5716 5715 5713 5712 5710 5707 5705 5702 5699 5696 5693 5690 5687 5684 5682 5680 5680 5680 5681 5683 5685 5687 5690 5692 5695 5697 5699 5701 5702 5703 5704 5704 5704 5704 5703 5703 5702 5700
5708 5708 5708 5708 5708 5707 5706 5704 5702 5699 5696 5693 5690 5686 5681 5677 5673 5669 5665 5662 5659 5658 5659 5660 5663 5666 5669 5673 5676 5680 5683 5685 5687 5689 5690 5691 5692 5692 5692 5691 5690 5689 5688
5701 5701 5701 5700 5699 5698 5696 5694 5692 5689 5686 5682 5678 5673 5667 5661 5656 5650 5644 5640 5637 5636 5636 5638 5641 5645 5650 5654 5659 5663 5667 5670 5673 5676 5677 5678 5679 5679 5679 5679 5677 5676 5674
5695 5695 5694 5693 5691 5689 5687 5685 5682 5679 5675 5671 5666 5660 5653 5646 5638 5630 5624 5618 5615 5614 5615 5617 5621 5626 5631 5636 5641 5647 5651 5655 5659 5662 5664 5666 5667 5667 5666 5666 5664 5662 5660
5689 5688 5687 5685 5683 5681 5678 5676 5673 5669 5665 5660 5654 5646 5638 5630 5621 5612 5605 5599 5596 5596 5597 5600 5604 5609 5614 5619 5625 5631 5636 5641 5645 5649 5651 5653 5654 5654 5654 5653 5651 5649 5646
5683 5681 5679 5678 5675 5673 5670 5668 5664 5660 5656 5650 5642 5635 5626 5617 5607 5598 5590 5585 5582 5582 5584 5587 5590 5594 5600 5605 5611 5617 5622 5627 5632 5635 5638 5640 5641 5641 5641 5639 5637 5635 5632
5676 5674 5672 5670 5668 5665 5663 5660 5656 5653 5647 5641 5633 5625 5617 5608 5599 5590 5582 5577 5574 5573 5575 5577 5580 5584 5588 5593 5599 5605 5610 5615 5619 5623 5625 5627 5628 5628 5627 5626 5623 5621 5618
5670 5668 5666 5663 5661 5659 5656 5653 5650 5646 5640 5634 5627 5619 5611 5602 5594 5585 5579 5573 5570 5568 5569 5570 5572 5576 5580 5584 5589 5595 5600 5604 5608 5612 5614 5615 5616 5616 5615 5613 5610 5607 5603
5664 5662 5659 5657 5655 5652 5650 5647 5643 5639 5634 5628 5622 5614 5607 5599 5590 5583 5577 5572 5568 5566 5566 5566 5568 5571 5575 5579 5583 5588 5592 5596 5599 5602 5604 5605 5605 5604 5603 5600 5597 5593 5588
5659 5657 5654 5652 5649 5647 5644 5641 5638 5634 5629 5624 5618 5611 5604 5597 5590 5583 5577 5572 5569 5566 5565 5565 5567 5569 5572 5575 5579 5583 5586 5589 5591 5593 5595 5595 5594 5593 5591 5587 5583 5578 5573
5654 5652 5649 5647 5644 5642 5639 5636 5633 5629 5625 5620 5615 5609 5603 5596 5590 5584 5578 5574 5571 5568 5567 5566 5567 5569 5571 5573 5576 5579 5581 5584 5585 5586 5586 5585 5584 5582 5579 5575 5570 5564 5559
5649 5647 5645 5642 5640 5637 5634 5631 5628 5625 5621 5617 5612 5607 5602 5596 5591 5586 5581 5577 5574 5571 5570 5569 5569 5570 5571 5573 5574 5576 5577 5579 5579 5579 5578 5576 5574 5571 5567 5563 5557 5551 5545
5645 5643 5641 5638 5636 5633 5630 5628 5625 5622 5618 5614 5610 5606 5601 5596 5592 5587 5583 5579 5577 5574 5573 5572 5571 5571 5572 5572 5573 5573 5574 5574 5573 5572 5570 5567 5564 5560 5556 5550 5544 5537 5529
5641 5639 5637 5635 5632 5630 5627 5624 5622 5619 5616 5612 5608 5605 5601 5597 5592 5589 5585 5582 5579 5577 5575 5574 5573 5572 5571 5571 5570 5570 5569 5568 5566 5564 5561 5558 5554 5549 5543 5537 5529 5521 5513
5636 5634 5633 5631 5628 5626 5624 5621 5619 5616 5613 5610 5607 5603 5600 5596 5593 5589 5586 5583 5580 5578 5576 5574 5573 5571 5570 5568 5567 5566 5564 5562 5559 5556 5552 5548 5543 5537 5530 5523 5514 5505 5496
5631 5630 5628 5626 5624 5622 5620 5618 5616 5613 5611 5608 5605 5602 5599 5596 5592 5589 5586 5583 5580 5578 5575 5573 5571 5569 5567 5565 5563 5561 5558 5555 5551 5547 5543 5537 5531 5524 5517 5508 5499 5490 5481
5627 5625 5624 5622 5620 5618 5617 5615 5613 5611 5608 5606 5603 5600 5597 5594 5591 5588 5585 5582 5579 5576 5573 5571 5568 5566 5563 5561 5558 5554 5551 5547 5542 5537 5532 5526 5519 5511 5503 5494 5484 5475 5467
5621 5620 5619 5617 5616 5614 5612 5611 5609 5607 5605 5603 5600 5597 5594 5591 5588 5585 5582 5579 5576 5573 5570 5567 5564 5561 5558 5555 5551 5547 5543 5538 5533 5527 5520 5513 5506 5497 5488 5479 5471 5462 5455